Roros Lufthavn, Norway

5:00 PM CET on December 06, 2019 (GMT +0100)
Roros

Weather History for ENRO - October, 2019

Change the Weather History Date:

Friday, October 25, 2019

  Actual Average Record
Temperature  
Mean Temperature 38 °F -  
Max Temperature 48 °F 36 °F 48 °F (2014)
Min Temperature 28 °F 27 °F 6 °F (2005)
Degree Days  
Heating Degree Days 27    
Moisture  
Dew Point 37 °F    
Average Humidity 95    
Maximum Humidity 100    
Minimum Humidity 86    
Precipitation  
Precipitation 0.00 in - - ()
Sea Level Pressure  
Sea Level Pressure 29.39 in    
Wind  
Wind Speed 8 mph ()    
Max Wind Speed 16 mph    
Max Gust Speed 29 mph    
Visibility 5.6 miles    
Events Rain , Snow    
Averages and records for this station are not official NWS values.
T = Trace of Precipitation, MM = Missing Value Source: Averaged Metar Reports

Daily Weather History Graph

Daily Weather History Graph

Search for Another Location

Airport or City:

Astronomy

Oct. 25, 2019 Rise Set
Actual Time 8:27 AM CEST 5:28 PM CEST
Civil Twilight 7:39 AM CEST 6:16 PM CEST
Nautical Twilight 6:46 AM CEST 7:09 PM CEST
Astronomical Twilight 5:54 AM CEST 8:01 PM CEST
Moon 3:15 AM CEST (10/25) 5:39 PM CEST (10/25)
Length of Visible Light 10h 36m
Length of Day
9h 01m
Waning Crescent, 11% of the Moon is Illuminated
Oct 25
Waning Crescent
Oct 28
New
Nov 4
First Quarter
Nov 12
Full
Nov 19
Last Quarter

Hourly Weather History & Observations

Time (CEST) Temp. Windchill Dew Point Humidity Pressure Visibility Wind Dir Wind Speed Gust Speed Precip Events Conditions
12:20 AM 42.8 °F 36.6 °F 42.8 °F 100% 29.44 in 6.2 mi ESE 11.5 mph - N/A   Overcast
12:50 AM 42.8 °F 36.2 °F 42.8 °F 100% 29.44 in 6.2 mi SE 12.7 mph - N/A   Overcast
1:20 AM 46.4 °F 41.1 °F 46.4 °F 100% 29.42 in 6.2 mi SSE 11.5 mph 28.8 mph N/A   Overcast
1:50 AM 44.6 °F 38.8 °F 44.6 °F 100% 29.42 in 6.2 mi ESE 11.5 mph - N/A Rain Light Rain Showers
2:20 AM 44.6 °F 40.7 °F 44.6 °F 100% 29.39 in 6.2 mi SE 6.9 mph - N/A Rain Light Rain Showers
3:20 AM 48.2 °F - 44.6 °F 87% 29.36 in 6.2 mi SE 11.5 mph - N/A   Overcast
4:20 AM 46.4 °F 41.9 °F 44.6 °F 93% 29.36 in 6.2 mi SE 9.2 mph - N/A Rain Light Rain
4:50 AM 48.2 °F - 46.4 °F 93% 29.33 in 6.2 mi SSE 8.1 mph - N/A   Overcast
5:20 AM 48.2 °F - 46.4 °F 93% 29.33 in 6.2 mi WSW 5.8 mph - N/A   Overcast
5:50 AM 48.2 °F - 46.4 °F 93% 29.30 in 6.2 mi SSE 11.5 mph - N/A   Overcast
6:20 AM 48.2 °F - 46.4 °F 93% 29.30 in 6.2 mi South 8.1 mph - N/A   Mostly Cloudy
7:20 AM 48.2 °F - 46.4 °F 93% 29.27 in 6.2 mi South 10.4 mph - N/A   Mostly Cloudy
9:20 AM 48.2 °F - 44.6 °F 87% 29.24 in 6.2 mi East 5.8 mph - N/A   Mostly Cloudy
10:50 AM 37.4 °F 29.3 °F 37.4 °F 100% 29.27 in 5.6 mi NNW 12.7 mph - N/A Rain Rain
11:20 AM 33.8 °F 23.5 °F 33.8 °F 100% 29.27 in 1.0 mi NNW 16.1 mph 27.6 mph N/A Snow Snow
12:20 PM 32.0 °F 25.6 °F 32.0 °F 100% 29.33 in 0.3 mi WNW 6.9 mph - N/A Snow Snow
1:50 PM 33.8 °F 25.8 °F 33.8 °F 100% 29.39 in 1.6 mi WNW 10.4 mph - N/A Snow Light Snow
2:20 PM 33.8 °F 27.0 °F 32.0 °F 93% 29.39 in 6.2 mi West 8.1 mph - N/A Snow Light Snow
2:50 PM 33.8 °F 28.6 °F 32.0 °F 93% 29.39 in 6.2 mi West 5.8 mph - N/A   Mostly Cloudy
3:20 PM 33.8 °F 27.0 °F 32.0 °F 93% 29.39 in 6.2 mi West 8.1 mph - N/A   Mostly Cloudy
3:50 PM 33.8 °F 27.7 °F 33.8 °F 100% 29.39 in 6.2 mi SW 6.9 mph - N/A   Mostly Cloudy
4:20 PM 33.8 °F 26.4 °F 33.8 °F 100% 29.42 in 6.2 mi SW 9.2 mph - N/A   Mostly Cloudy
4:50 PM 33.8 °F 27.0 °F 33.8 °F 100% 29.42 in 6.2 mi WSW 8.1 mph - N/A   Mostly Cloudy
5:20 PM 33.8 °F 27.0 °F 33.8 °F 100% 29.42 in 6.2 mi SW 8.1 mph - N/A   Mostly Cloudy
5:50 PM 32.0 °F 27.5 °F 32.0 °F 100% 29.42 in 6.2 mi SSW 4.6 mph - N/A   Mostly Cloudy
6:20 PM 32.0 °F 25.6 °F 32.0 °F 100% 29.44 in 6.2 mi WSW 6.9 mph - N/A   Partly Cloudy
6:50 PM 32.0 °F 26.4 °F 32.0 °F 100% 29.44 in - SW 5.8 mph - N/A   Clear
7:20 PM 30.2 °F 24.3 °F 30.2 °F 100% 29.44 in - South 5.8 mph - N/A   Clear
8:20 PM 30.2 °F 21.9 °F 26.6 °F 86% 29.47 in - WSW 9.2 mph - N/A   Clear
8:50 PM 30.2 °F 23.4 °F 26.6 °F 86% 29.44 in - WSW 6.9 mph - N/A   Clear
10:20 PM 30.2 °F 25.4 °F 26.6 °F 86% 29.47 in 6.2 mi SW 4.6 mph - N/A   Unknown
11:20 PM 28.4 °F 20.4 °F 24.8 °F 86% 29.47 in 6.2 mi SW 8.1 mph - N/A   Unknown
11:50 PM 28.4 °F 21.2 °F 24.8 °F 86% 29.50 in 6.2 mi WSW 6.9 mph - N/A   Unknown